Flight Track Log - Related Links

Times and Time Zones

All times are in EDT time to prevent confusion due to time zone crossing. See the EJA396 flight status page for this flight to view local times or setup timezone preferences in your user account.

Time Position Orientation Groundspeed Altitude Reporting Facility
EDT Latitude Longitude Course Direction KTS MPH feet Rate Location/Type
Mon 05:34:10 PM 38.8500 -76.1333 339° North 239 275 4,300  Level Potomac TRACON
Mon 05:35:10 PM 38.9167 -76.1667 339° North 264 304 8,900 2,350 Climbing Potomac TRACON
Mon 05:36:10 PM 39.0000 -76.1500 North 304 350 9,000 50 Climbing Potomac TRACON
Mon 05:37:10 PM 39.0667 -76.1000 30° Northeast 306 352 9,000 50 Level Potomac TRACON
Mon 05:38:11 PM 39.1333 -76.0333 38° Northeast 305 351 9,100 -79 Climbing Potomac TRACON
Mon 05:38:26 PM 39.1500 -76.0167 38° Northeast 306 352 8,900 -174 Descending Philadelphia TRACON
Mon 05:39:20 PM 39.2167 -75.9667 30° Northeast 307 353 8,900 52 Level Philadelphia TRACON
Mon 05:40:21 PM 39.2833 -75.9000 38° Northeast 314 361 9,000 -397 Climbing Philadelphia TRACON
Mon 05:41:21 PM 39.3167 -75.8000 67° East 312 359 8,100 -1,050 Descending Philadelphia TRACON
Mon 05:42:21 PM 39.3667 -75.7000 57° Northeast 292 336 6,900 -550 Descending Philadelphia TRACON
Mon 05:43:21 PM 39.4000 -75.6167 63° Northeast 282 325 7,000 -400 Climbing Philadelphia TRACON
Mon 05:44:21 PM 39.4333 -75.5167 67° East 293 337 6,100 -1,200 Descending Philadelphia TRACON
Mon 05:45:21 PM 39.4833 -75.4333 52° Northeast 281 323 4,600 -1,100 Descending Philadelphia TRACON
Mon 05:46:21 PM 39.5167 -75.3500 63° Northeast 274 315 3,900 -350 Descending Philadelphia TRACON
Mon 05:47:21 PM 39.5500 -75.2667 63° Northeast 292 336 3,900  Level Philadelphia TRACON
Mon 05:48:21 PM 39.5833 -75.1667 67° East 266 306 3,900  Level Philadelphia TRACON
Mon 05:49:21 PM 39.5833 -75.1000 90° East 226 260 3,900  Level Philadelphia TRACON
Mon 05:50:21 PM 39.6167 -75.0167 63° Northeast 214 246 3,900  Level Philadelphia TRACON
Mon 05:51:21 PM 39.6667 -74.9833 27° Northeast 224 258 3,900  Level Philadelphia TRACON
Mon 05:52:21 PM 39.7333 -74.9667 11° North 231 266 3,900 50 Level Philadelphia TRACON
Mon 05:53:21 PM 39.7833 -74.9333 27° Northeast 224 258 4,000 -250 Climbing Philadelphia TRACON
Mon 05:54:21 PM 39.8500 -74.9500 349° North 221 254 3,400 -500 Descending Philadelphia TRACON
Mon 05:55:21 PM 39.9000 -75.0000 323° Northwest 180 207 3,000 -700 Descending Philadelphia TRACON
Mon 05:56:21 PM 39.9167 -75.0500 294° West 185 213 2,000 -550 Descending Philadelphia TRACON
Mon 05:57:21 PM 39.9000 -75.1000 247° West 115 132 1,900 -350 Descending Philadelphia TRACON
Mon 05:58:21 PM 39.9000 -75.1333 270° West 104 120 1,300 -550 Descending Philadelphia TRACON
Mon 05:59:21 PM 39.8833 -75.1833 247° West 105 121 800 -500 Descending Philadelphia TRACON
Mon 06:01:00 PM 39.8667 -75.2333 260° West  Level FlightAware Approximate
Mon 06:08:00 PM 39.8722 -75.2409 260° West  Level Estimated

Login

Don't have an account? Register now (free) for customized features, flight alerts, and more!